Regional Weather Roundup
Issued by NWS Spokane, WA

Home | Current Version | Previous Version | Text Only | Print | Product List | Glossary On
Versions: 1 2 3 4 5 6 7 8 9 10 11 12 13 14 15 16 17 18 19 20 21 22 23 24 25 26 27 28 29 30 31 32 33 34 35 36 37 38 39 40 41 42 43 44 45 46 47 48 49 50
000
NZUS01 KOTX 250610
RWROTX
EASTERN WASHINGTON/NORTHERN IDAHO ROUNDUP
NATIONAL WEATHER SERVICE, SPOKANE WA
1100 PM PDT THU APR 24 2014

Note: "fair" indicated few or no clouds below 12,000 feet with no
significant weather and/or obstructions to visibility.

...NORTHEAST WASHINGTON AND NORTHERN IDAHO PANHANDLE...

CITY           SKY/WX    TMP DP  RH WIND       PRES   REMARKS
SPOKANE INTL   CLOUDY    48  32  53 S8        29.79S
SPOKANE DOWNTO CLOUDY    47  35  63 N3        29.80S
COEUR D ALENE  CLOUDY    46  39  76 S8        29.81S
DEER PARK      RAIN      44  37  76 E6        29.79F
SANDPOINT      CLOUDY    43  43 100 N7        29.81S

...SOUTHEAST WASHINGTON AND SOUTHERN IDAHO PANHANDLE...

CITY           SKY/WX    TMP DP  RH WIND       PRES   REMARKS
WALLA WALLA    CLOUDY    52  38  58 SW13      29.86R
PULLMAN/MOSCOW CLOUDY    44  38  79 SE8       29.85S
LEWISTON       CLOUDY    46  36  68 SE6       29.84S
LOWELL           N/A     42  41  96 NW3       29.93S

...COLUMBIA BASIN...

CITY           SKY/WX    TMP DP  RH WIND       PRES   REMARKS
EPHRATA        CLOUDY    50  31  48 NW16      29.78R
MOSES LAKE     CLOUDY    47  35  63 N7        29.80S
TRI CITIES     CLOUDY    54  33  45 SW15      29.84R
HERMISTON      CLOUDY    51  39  63 SW13      29.85F
PENDLETON      LGT RAIN  47  37  68 W12       29.85S

...EAST SLOPES CASCADES...

CITY           SKY/WX    TMP DP  RH WIND       PRES   REMARKS
THE DALLES     CLOUDY    48  41  76 NW6       29.89F
YAKIMA         CLOUDY    49  35  58 NW8       29.83S
ELLENSBURG     CLOUDY    45  34  65 NW14      29.82F
WENATCHEE      CLOUDY    50  30  46 NW14      29.81R
OMAK           MOCLDY    46  32  58 CALM      29.76R

...SOUTHERN BRITISH COLUMBIA...

CITY           SKY/WX    TMP DP  RH WIND       PRES   REMARKS
PENTICTON      PTCLDY    41  37  87 N8        29.81R

...WESTERN MONTANA...

CITY           SKY/WX    TMP DP  RH WIND       PRES   REMARKS
MISSOULA       MOCLDY    42  36  79 SE9       29.87F

...NEIGHBORING CITIES...

CITY           SKY/WX    TMP DP  RH WIND       PRES   REMARKS
SEATTLE        MOCLDY    47  42  83 S7        29.92R
CALGARY        MOCLDY    39  28  65 E13       29.68R



USA.gov is the U.S. government's official web portal to all federal, state and local government web resources and services.